Windsor Locks, CT

3:40 PM EDT on July 24, 2017 (GMT -0400)
Bradley International

Weather History for KBDL - April, 2013

Change the Weather History Date:

Tuesday, April 23, 2013

  Actual Average Record
Temperature  
Mean Temperature 41 °F 52 °F  
Max Temperature 46 °F 64 °F 88 °F (2007)
Min Temperature 36 °F 41 °F 26 °F (1989)
Degree Days  
Heating Degree Days 24 13  
Month to date heating degree days 403 392  
Since 1 July heating degree days 5415 5673  
Cooling Degree Days 0 0  
Month to date cooling degree days 1 0  
Year to date cooling degree days 1 0  
Moisture  
Dew Point 33 °F    
Average Humidity 73    
Maximum Humidity 82    
Minimum Humidity 64    
Precipitation  
Precipitation 0.00 in 0.12 in 1.90 in (2006)
Month to date precipitation 1.67 2.84  
Year to date precipitation 9.78 12.58  
Snow  
Snow 0.00 in 0.00 in 1.00 in (1956)
Month to date snowfall 0.0 1.3  
Since 1 July snowfall 56.9 40.4  
Snow Depth 0.00 in    
Sea Level Pressure  
Sea Level Pressure 30.37 in    
Wind  
Wind Speed 12 mph (NNE)    
Max Wind Speed 20 mph    
Max Gust Speed 25 mph    
Visibility 10 miles    
Events      
T = Trace of Precipitation, MM = Missing Value Source: NWS Daily Summary

Daily Weather History Graph

Daily Weather History Graph

Search for Another Location

Airport or City:

Trip Planner

Search our weather history database for the weather conditions in past years. The results will help you decide how hot, cold, wet, or windy it might be!

Date:

Astronomy

Apr. 23, 2013 Rise Set
Actual Time 5:57 AM EDT 7:40 PM EDT
Civil Twilight 5:28 AM EDT 8:10 PM EDT
Nautical Twilight 4:52 AM EDT 8:46 PM EDT
Astronomical Twilight 4:13 AM EDT 9:25 PM EDT
Moon 5:31 PM EDT (4/23) 4:26 AM EDT (4/23)
Length of Visible Light 14h 42m
Length of Day
13h 43m
Waxing Gibbous, 94% of the Moon is Illuminated
Apr 23
Waxing Gibbous
Apr 25
Full
May 2
Last Quarter
May 9
New
May 18
First Quarter

Hourly Weather History & Observations

Time (EDT) Temp. Windchill Dew Point Humidity Pressure Visibility Wind Dir Wind Speed Gust Speed Precip Events Conditions
12:51 AM 39.0 °F 34.0 °F 28.9 °F 67% 30.55 in 10.0 mi NE 6.9 mph - N/A   Mostly Cloudy
1:06 AM 39.2 °F 34.2 °F 28.4 °F 65% 30.54 in 10.0 mi NE 6.9 mph - N/A   Mostly Cloudy
1:51 AM 37.9 °F 33.5 °F 28.9 °F 70% 30.53 in 10.0 mi NNE 5.8 mph - N/A   Mostly Cloudy
2:39 AM 37.4 °F 32.1 °F 28.4 °F 70% 30.50 in 10.0 mi NNE 6.9 mph - N/A   Mostly Cloudy
2:51 AM 37.0 °F 32.4 °F 28.9 °F 73% 30.51 in 10.0 mi NNE 5.8 mph - N/A   Mostly Cloudy
3:51 AM 37.0 °F 31.6 °F 28.9 °F 73% 30.48 in 10.0 mi North 6.9 mph - N/A   Mostly Cloudy
4:51 AM 37.9 °F 31.5 °F 30.0 °F 73% 30.47 in 10.0 mi North 9.2 mph - N/A   Overcast
5:09 AM 37.4 °F 30.8 °F 30.2 °F 75% 30.46 in 10.0 mi North 9.2 mph - N/A   Overcast
5:51 AM 37.9 °F 30.9 °F 28.9 °F 70% 30.46 in 10.0 mi North 10.4 mph - N/A   Overcast
6:51 AM 39.0 °F 31.4 °F 30.0 °F 70% 30.45 in 10.0 mi NNE 12.7 mph - N/A   Overcast
7:51 AM 39.0 °F 32.3 °F 30.0 °F 70% 30.45 in 10.0 mi North 10.4 mph - N/A   Overcast
8:51 AM 39.9 °F 32.9 °F 32.0 °F 73% 30.43 in 10.0 mi North 11.5 mph - N/A   Overcast
9:51 AM 41.0 °F 34.7 °F 34.0 °F 76% 30.42 in 10.0 mi NNE 10.4 mph - N/A   Overcast
10:51 AM 42.1 °F 34.2 °F 35.1 °F 76% 30.41 in 9.0 mi NNE 16.1 mph - N/A   Overcast
11:51 AM 44.1 °F 37.4 °F 35.1 °F 71% 30.39 in 10.0 mi NNE 13.8 mph - N/A   Overcast
12:51 PM 44.1 °F 37.4 °F 36.0 °F 73% 30.36 in 10.0 mi NNE 13.8 mph - N/A   Overcast
1:51 PM 45.0 °F 38.5 °F 37.0 °F 74% 30.33 in 10.0 mi NNE 13.8 mph - N/A   Overcast
2:51 PM 45.0 °F 38.9 °F 37.0 °F 74% 30.30 in 10.0 mi NNE 12.7 mph - N/A   Overcast
3:51 PM 45.0 °F 38.2 °F 37.0 °F 74% 30.28 in 10.0 mi NNE 15.0 mph - N/A   Overcast
4:51 PM 44.1 °F 36.5 °F 37.0 °F 76% 30.27 in 10.0 mi NNE 17.3 mph - N/A   Overcast
5:51 PM 44.1 °F 36.2 °F 37.0 °F 76% 30.25 in 10.0 mi NNE 18.4 mph - N/A   Overcast
6:51 PM 44.1 °F 37.7 °F 37.0 °F 76% 30.23 in 10.0 mi NNE 12.7 mph - N/A   Overcast
7:51 PM 43.0 °F 36.4 °F 37.0 °F 80% 30.21 in 10.0 mi North 12.7 mph - N/A   Overcast
8:51 PM 43.0 °F 36.8 °F 37.0 °F 80% 30.21 in 10.0 mi North 11.5 mph - N/A   Overcast
9:51 PM 43.0 °F 35.4 °F 37.0 °F 80% 30.18 in 10.0 mi NNE 16.1 mph 21.9 mph N/A   Overcast
10:51 PM 42.1 °F 35.7 °F 37.0 °F 82% 30.15 in 10.0 mi North 11.5 mph 20.7 mph N/A   Overcast
11:51 PM 42.1 °F 34.2 °F 37.0 °F 82% 30.12 in 10.0 mi North 16.1 mph 21.9 mph N/A   Overcast